Location: Gälforsberget
(66.6500°N, 22.4167°E)
Time: 02:18:47
(UTC+00:00)

Cosmos 1459 Rocket - Pass Details

Date: 11 April 2026
Orbit: 935 x 999 km, 83.0° (Epoch: 20 May)

Event Time Altitude Azimuth Distance (km) Brightness Sun altitude
Exits shadow 22:33:28 21° 184° (S) 2,076 5.1 -14.8°
Maximum altitude 22:37:55 76° 102° (ESE) 1,032 4.1 -14.7°
Drops below altitude 10° 22:44:15 10° 18° (NNE) 2,763 7.6 -14.7°
Sets 22:46:46 0° 17° (NNE) 3,706 8.7 -14.7°
